Location: Peterborough
(44.3091°N, 78.3197°W)
Time: 18:33:33
(UTC-05:00)

Tiros 1 despin weight - Pass Details

Date: 07 December 2023
Orbit: 581 x 624 km, 48.2° (Epoch: 24 February)

Event Time Altitude Azimuth Distance (km) Brightness Sun altitude
Rises 19:15:33 0° 269° (W) 2,802 ? -28.0°
Reaches altitude 10° 19:17:52 10° 274° (W) 1,899 ? -28.4°
Enters shadow 19:20:41 36° 296° (WNW) 932 ? -28.9°
